Showing default

OPS 9316 (IDSCS 6), 2220

Orbit data source: Space-Track

OPS 9316 (IDSCS 6), 2220 is a payload satellite owned by USAF SSD (US) in GEO that was launched on Thu, 16 Jun 1966 UTC via a TITAN IIIC launch vehicle from the Air Force Eastern Test Range (AFETR). Payload-class satellites include a variety of spacecraft equipped with specific instruments for various scientific and technological missions. These include communications satellites like Starlink; space stations such as the ISS; scientific satellites like the Hubble; Earth observation satellites from companies like Planet Labs, Umbra, and HawkEye 360; GPS; miniature CubeSats for education and research; and military/defense satellites.

Loading next visibility...
Identifier
2220, 1966-053G
Orbit
GEO
Country
Flag of USUS
Related business
Manufacturer
Philco-Ford WDL
Mission
Non-operational spacecraft
Bus & Motor
IDCSP, Unknown motor
Mass
45 kg wet, 45 kg dry
Launch date (UTC)
1966-06-16 (60 years ago)
Launch vehicle
TITAN IIIC
Launch site
Air Force Eastern Test Range (AFETR)
Object type
Payload
Rocket body
Debris
Shape & HBR
Unknown
Radar Cross Section
Medium (>0.1 m² and <1 m²)

Expand to show TLE details & history
Last TLE update: 1 day ago

TLE from 1 day ago
0 OPS 9316 (IDSCS 6)
1  2220U 66053G   26037.16868134 -.00000095  00000-0  00000+0 0  9995
2  2220   8.2196  47.3682 0066340 180.5256 181.0784  1.07156596137651
Epoch: 2026-02-06T04:02Z
TLE epoch observation values (Epoch: 2026-02-06T04:02:54.067Z)
Latitude
0.21412°
Longitude
-148.07511°
Altitude
34,226.48 km
Speed
3.123 km/s
True Right ascension
03h 15m 50s
True Declination
0° 12' 50"
Sunlit
Object was in daylight at epoch
Visualization orbit readout
Latitude
Unknown
Longitude
Unknown
Altitude
Unknown
Speed
Unknown
Apparent Right ascension
Unknown
Apparent Declination
Unknown
Sunlit
N/A
Visualization observer readout
Local Sidereal Time
06:36:24
Azimuth
Unknown
Elevation
Unknown
Doppler factor
Unknown
Orbital elements
Apogee altitude
34,229.323 km
Perigee altitude
33,694.094 km
Semi-major axis
40,339.845 km
Eccentricity
0.00663
Inclination
8.2196°
RAAN
47.3682°
Arg. of periapsis
180.5256°
True anomaly
181.06421°
Mean anomaly
181.0784°
Eccentric anomaly
181.07129°
Mean motion
0.26788 °/min
Orbital period
1,343.88 mins
BSTAR
0
Loading maneuver chart data...
Computing Atmospheric mass density...
Loading historical data...
Loading historical data...
Loading historical data...
Loading historical data...
Loading historical data...
Loading historical data...
Loading historical data...

Documentation

Showing up to 5 results
|